[[{"header":{"parameterUnit":"m.s-1","parameterCategory":1,"la1":30.2991,"la2":30.254,"lo1":-89.0895,"lo2":-89.0444,"dy":0.0017,"dx":0.0017,"nx":28,"ny":28,"refTime":"2025-12-20T09:00:00:Z","depth":0,"parameterNumber":2,"parameterNumberName":"U-component_of_WINDS"},"data":[0,0,0,0,0,0,0,0,0,0,0,0,0,0,0,0,0,0,0,0,0,0,0,0,0,0,0,0,0,0,0,0,0,0,0,0,0,0,0,0,0,0,0,0,0,0,0,0,0,0,0,0,0,0,0,0,0,0,-0.1079,-0.108,0,-0.1185,-0.1187,-0.1188,-0.1293,-0.1294,-0.1296,-0.1297,-0.1409,-0.1411,-0.1412,0,0,0,0,0,0,0,0,0,0,0,0,0,-0.0971,-0.0972,-0.1079,-0.108,-0.1082,-0.1185,-0.1187,-0.1188,-0.1293,-0.1294,-0.1296,-0.1297,-0.1408,-0.141,-0.1412,0,0,0,0,0,0,0,0,0,0,0,0,0,-0.1042,-0.0973,-0.1079,-0.1146,-0.1153,-0.1185,-0.1187,-0.1189,-0.1292,-0.1294,-0.1296,-0.1298,-0.1408,-0.141,-0.1413,-0.1387,0,0,-0.1421,-0.1422,0,0,0,0,0,0,0,0,-0.1037,-0.1045,-0.1135,-0.1142,-0.115,-0.1228,-0.119,-0.1255,-0.1292,-0.124,-0.1297,-0.1299,-0.1347,-0.1355,-0.137,-0.1393,-0.1397,-0.1421,-0.1422,-0.1423,-0.1424,0,0,0,0,0,0,0,-0.1032,-0.1042,-0.1121,-0.1136,-0.1145,-0.1173,-0.1185,-0.1203,-0.1281,-0.1244,-0.1252,-0.1263,-0.1352,-0.1368,-0.1374,-0.1399,-0.1421,-0.1423,-0.1425,-0.1426,-0.1408,-0.1406,0,0,0,0,0,0,-0.1017,-0.1037,-0.1118,-0.1125,-0.1097,-0.1173,-0.1187,-0.1201,-0.1281,-0.1295,-0.1261,-0.1268,-0.1362,-0.1371,-0.1378,-0.1355,-0.1423,-0.1426,-0.1427,-0.141,-0.1408,-0.1406,0,0,0,0,0,0,-0.1014,-0.1023,-0.1114,-0.1083,-0.1096,-0.1173,-0.1188,-0.1202,-0.1218,-0.1294,-0.1308,-0.1263,-0.1364,-0.1375,-0.1385,-0.136,-0.1427,-0.1429,-0.1413,-0.1409,-0.1407,-0.1307,0,0,0,0,0,0,-0.101,-0.1021,-0.1011,-0.1082,-0.1098,-0.1116,-0.1186,-0.1202,-0.1222,-0.1231,-0.1299,-0.1312,-0.1367,-0.138,-0.1387,-0.1365,-0.1431,-0.1415,-0.1411,-0.1408,-0.1313,-0.1301,-0.1291,0,0,0,0,0,-0.1006,-0.0979,-0.101,-0.1019,-0.1086,-0.1115,-0.1124,-0.1186,-0.1219,-0.1211,-0.126,-0.131,-0.1362,-0.138,-0.1389,-0.1367,-0.1417,-0.1412,-0.1408,-0.1318,-0.1303,-0.1291,0,0,0,0,0,0,-0.0905,-0.099,-0.1025,-0.102,-0.1059,-0.1132,-0.1123,-0.1169,-0.12,-0.1208,-0.1285,-0.1299,-0.1301,-0.1335,-0.1354,-0.1348,-0.1397,-0.1394,-0.1325,-0.1312,-0.1301,-0.1293,-0.1433,0,0,0,0,0,-0.0882,-0.0896,-0.097,-0.0959,-0.0977,-0.1046,-0.1061,-0.1105,-0.115,-0.1167,-0.1217,-0.1259,-0.1285,-0.1301,-0.1329,-0.1319,-0.1336,-0.1308,-0.1297,-0.1288,-0.1284,-0.1283,-0.1272,-0.1391,-0.1391,-0.1391,0,0,-0.0834,-0.0883,-0.0887,-0.094,-0.0975,-0.099,-0.106,-0.1072,-0.1084,-0.117,-0.1182,-0.122,-0.1272,-0.1272,-0.1275,-0.1301,-0.1255,-0.1282,-0.1274,-0.1276,-0.1277,-0.1266,-0.1256,-0.1388,-0.1388,-0.1389,0,0,-0.0756,-0.0793,-0.0788,-0.0822,-0.0876,-0.0922,-0.0921,-0.0988,-0.1016,-0.1029,-0.1094,-0.1111,-0.1153,-0.1188,-0.1212,-0.1148,-0.1196,-0.1155,-0.1097,-0.1095,-0.1086,-0.1078,-0.1056,-0.1047,-0.1151,-0.1151,-0.1151,0,-0.069,-0.0714,-0.078,-0.0789,-0.081,-0.0888,-0.0884,-0.0915,-0.0975,-0.0989,-0.1017,-0.1073,-0.1114,-0.1124,-0.1108,-0.1124,-0.1127,-0.1147,-0.1082,-0.1074,-0.1068,-0.1048,-0.104,-0.1146,-0.1146,-0.1147,-0.1147,0,-0.0631,-0.0647,-0.0637,-0.0692,-0.0713,-0.0715,-0.0783,-0.0796,-0.0839,-0.0883,-0.0897,-0.0949,-0.0989,-0.0995,-0.1038,-0.1012,-0.1027,-0.1067,-0.1118,-0.105,-0.1033,-0.1026,-0.1138,-0.114,-0.1142,-0.1143,0,0,-0.0491,-0.0583,-0.0578,-0.0604,-0.0669,-0.0683,-0.069,-0.0729,-0.0739,-0.0779,-0.0787,-0.0822,-0.0861,-0.0887,-0.0935,-0.0933,-0.088,-0.0974,-0.0977,-0.0955,-0.0856,-0.0825,-0.0815,-0.0913,-0.0912,-0.0911,-0.0852,0,-0.0424,-0.0439,-0.0499,-0.0497,-0.0513,-0.0588,-0.0594,-0.0635,-0.0677,-0.0698,-0.0746,-0.0769,-0.0818,-0.0834,-0.0836,-0.0886,-0.0861,-0.0891,-0.0923,-0.0923,-0.0907,-0.0806,-0.0773,-0.0715,-0.0846,-0.0845,-0.0844,0,-0.0347,-0.038,-0.0379,-0.0445,-0.0454,-0.0458,-0.0499,-0.0518,-0.0567,-0.0598,-0.0627,-0.068,-0.0694,-0.0741,-0.0761,-0.078,-0.0797,-0.0824,-0.0823,-0.0829,-0.0879,-0.0809,-0.0698,-0.0689,-0.0833,-0.0834,-0.0835,0,-0.0245,-0.029,-0.0296,-0.0316,-0.0392,-0.0394,-0.0426,-0.0477,-0.0497,-0.0533,-0.0547,-0.0585,-0.0606,-0.0635,-0.0697,-0.0725,-0.0711,-0.0763,-0.0738,-0.0737,-0.0732,-0.0731,-0.0622,-0.0742,-0.0742,-0.0742,-0.0742,0,-0.0164,-0.016,-0.0251,-0.0254,-0.0254,-0.0324,-0.0322,-0.0361,-0.0406,-0.042,-0.0487,-0.0499,-0.0581,-0.0603,-0.0652,-0.0662,-0.0671,-0.0697,-0.0711,-0.0691,-0.0688,-0.0704,-0.0709,-0.074,-0.074,-0.0741,-0.0741,0,-0.005,-0.011,-0.0121,-0.0193,-0.0211,-0.0207,-0.0269,-0.0276,-0.0322,-0.0339,-0.0347,-0.042,-0.0449,-0.0515,-0.0562,-0.0595,-0.0593,-0.0617,-0.0576,-0.0584,-0.0556,-0.0558,-0.0454,-0.0444,-0.0568,-0.0567,-0.0566,0,0.0006,0.0007,-0.0064,-0.0078,-0.0107,-0.0127,-0.0148,-0.0218,-0.0237,-0.0293,-0.0294,-0.0328,-0.0359,-0.0403,-0.0462,-0.0498,-0.0524,-0.0485,-0.053,-0.0511,-0.0524,-0.0523,-0.0524,-0.0474,-0.0473,-0.0471,-0.047,0,0.0111,0.0081,0.0055,0.0019,-0.0004,-0.0036,-0.0073,-0.008,-0.016,-0.0178,-0.0208,-0.0232,-0.028,-0.0314,-0.036,-0.0395,-0.0446,-0.0456,-0.0452,-0.0433,-0.0409,-0.0422,-0.0549,-0.0458,-0.0459,-0.046,-0.0461,-0.0461,0.0197,0.0194,0.0144,0.0116,0.0082,0.0049,0.0039,-0.0009,-0.0035,-0.0078,-0.0119,-0.0145,-0.0197,-0.0263,-0.0295,-0.0319,-0.0344,-0.0339,-0.0337,-0.0335,-0.0327,-0.0405,-0.0327,-0.0328,-0.0328,-0.0329,-0.0329,0,0.0298,0.0262,0.0238,0.0189,0.0167,0.0122,0.0079,0.0063,0.0042,-0.0001,-0.0031,-0.0066,-0.01,-0.0161,-0.02,-0.0207,-0.0231,-0.0215,-0.0215,-0.0223,-0.0302,-0.0301,-0.0194,-0.0194,-0.0194,-0.0194,-0.0194,-0.0194,0.0348,0.0341,0.0305,0.0278,0.0241,0.0216,0.0195,0.0163,0.0129,0.0093,0.0065,0.0026,-0.0025,-0.0069,-0.0102,-0.012,-0.0132,-0.0108,-0.0132,-0.0205,-0.0217,-0.0229,-0.0229,-0.0109,-0.0109,-0.0052,-0.0052,-0.0051]},{"header":{"parameterUnit":"m.s-1","parameterCategory":1,"la1":30.2991,"la2":30.254,"lo1":-89.0895,"lo2":-89.0444,"dy":0.0017,"dx":0.0017,"nx":28,"ny":28,"refTime":"2025-12-20T09:00:00:Z","depth":0,"parameterNumber":3,"parameterNumberName":"V-component_of_WINDS"},"data":[0,0,0,0,0,0,0,0,0,0,0,0,0,0,0,0,0,0,0,0,0,0,0,0,0,0,0,0,0,0,0,0,0,0,0,0,0,0,0,0,0,0,0,0,0,0,0,0,0,0,0,0,0,0,0,0,0,0,3.9875,3.9876,0,3.9966,3.9967,3.9968,3.9968,3.9967,3.9966,3.9965,4.0054,4.0057,4.0061,0,0,0,0,0,0,0,0,0,0,0,0,0,3.9699,3.9702,3.9875,3.9876,3.9877,3.9966,3.9967,3.9968,3.9968,3.9967,3.9966,3.9964,4.0053,4.0057,4.0061,0,0,0,0,0,0,0,0,0,0,0,0,0,3.9781,3.9703,3.9875,3.9888,3.989,3.9966,3.9967,3.9969,3.9969,3.9967,3.9965,3.9964,4.0051,4.0056,4.0062,4.0128,0,0,4.0077,4.008,0,0,0,0,0,0,0,0,3.9776,3.9787,3.9885,3.9887,3.989,3.9954,3.9938,4.0022,3.9969,3.9939,3.9965,3.9963,4.0022,4.0029,4.005,4.0133,4.0136,4.0078,4.0081,4.0083,4.0085,0,0,0,0,0,0,0,3.9771,3.9783,3.9911,3.9886,3.9889,3.9889,3.9898,3.9954,3.9989,3.9941,3.9942,3.9953,4.0023,4.0045,4.0052,4.0138,4.0078,4.0082,4.0086,4.0088,4.0282,4.0284,0,0,0,0,0,0,3.9763,3.9779,3.9908,3.9914,3.9828,3.9893,3.9904,3.9935,3.9988,3.9995,3.9954,3.9952,4.0037,4.0046,4.0055,4.0139,4.0083,4.0088,4.0091,4.028,4.0282,4.0285,0,0,0,0,0,0,3.9759,3.9774,3.9904,3.9846,3.9863,3.9898,3.9933,3.9938,3.996,3.9998,4.0004,3.9971,4.0036,4.0048,4.0111,4.0142,4.009,4.0095,4.0278,4.0281,4.0284,4.0306,0,0,0,0,0,0,3.9754,3.9773,3.9799,3.9847,3.9866,3.996,3.9935,3.9941,3.997,3.9968,4.0015,4.0021,4.0036,4.0103,4.0116,4.0148,4.0099,4.0275,4.0279,4.0283,4.0303,4.031,4.0315,0,0,0,0,0,3.9748,3.98,3.9801,3.9816,3.99,3.9961,3.9972,3.9989,3.9972,3.9999,4.0023,4.002,4.0136,4.011,4.0124,4.0158,4.0273,4.0278,4.0282,4.03,4.0308,4.0315,0,0,0,0,0,0,3.9753,3.9807,3.9808,3.9878,3.9915,3.9961,3.9995,3.9997,4.0039,4.0035,4.0053,4.0064,4.0127,4.0149,4.0118,4.0227,4.0203,4.021,4.0211,4.0219,4.0225,4.0219,4.0103,0,0,0,0,0,3.9763,3.981,3.9853,3.9911,3.993,3.996,3.9987,3.9997,4.0036,4.0051,4.008,4.0117,4.0162,4.0192,4.0235,4.0305,4.0316,4.0336,4.0342,4.0347,4.0354,4.0395,4.0405,4.03,4.03,4.03,0,0,3.9783,3.9818,3.9846,3.9913,3.9943,3.9991,3.9973,4.0023,4.0058,4.0058,4.0121,4.0143,4.0186,4.0253,4.0284,4.0273,4.0386,4.0353,4.0357,4.0361,4.0401,4.0411,4.042,4.0303,4.0302,4.0302,0,0,3.9845,3.9875,3.9928,3.9959,4.0006,4.0026,4.0038,4.0085,4.01,4.0164,4.0165,4.0207,4.0284,4.0315,4.034,4.0415,4.0414,4.0429,4.0462,4.0502,4.051,4.0518,4.0546,4.0556,4.0435,4.0435,4.0435,0,3.9864,3.9936,3.9954,4.0006,4.0036,4.004,4.0094,4.0122,4.018,4.0201,4.0187,4.0286,4.0314,4.039,4.0409,4.0429,4.0445,4.0424,4.0508,4.0515,4.0523,4.055,4.056,4.0437,4.0437,4.0437,4.0436,0,3.9958,4.0009,4.0045,4.0104,4.0138,4.019,4.0215,4.0247,4.0254,4.0275,4.034,4.0375,4.0426,4.0445,4.0451,4.0522,4.0514,4.0504,4.048,4.0534,4.056,4.0571,4.0439,4.0439,4.0438,4.0438,0,0,4.0026,4.0095,4.0109,4.0136,4.0189,4.0228,4.028,4.0332,4.036,4.04,4.0445,4.0511,4.0503,4.0532,4.0542,4.0576,4.0636,4.0562,4.0563,4.0576,4.0718,4.0727,4.0739,4.0635,4.0637,4.0639,4.0716,0,4.0094,4.019,4.0208,4.0291,4.0339,4.0343,4.0389,4.0426,4.0447,4.049,4.0512,4.056,4.0544,4.0562,4.0596,4.0621,4.0665,4.0616,4.0677,4.0679,4.0669,4.0752,4.0761,4.0832,4.0726,4.0727,4.0729,0,4.0187,4.0232,4.032,4.0369,4.0389,4.043,4.0481,4.0522,4.0564,4.0576,4.061,4.0617,4.0671,4.0644,4.072,4.0686,4.0712,4.0728,4.0731,4.0739,4.0708,4.0764,4.0855,4.0867,4.0744,4.0743,4.0742,0,4.023,4.0312,4.0376,4.0399,4.0457,4.0486,4.0511,4.0551,4.0582,4.0626,4.0646,4.0695,4.0722,4.0759,4.0778,4.0756,4.0853,4.0827,4.0866,4.0866,4.0887,4.0886,4.0986,4.0901,4.0901,4.0901,4.09,0,4.0306,4.036,4.0397,4.0437,4.0498,4.0518,4.0577,4.0602,4.0638,4.0682,4.0688,4.0729,4.0751,4.0795,4.0811,4.0872,4.0884,4.0896,4.0899,4.0896,4.0895,4.0915,4.0911,4.0903,4.0903,4.0902,4.0902,0,4.0365,4.0392,4.0462,4.0512,4.0525,4.0568,4.061,4.0649,4.067,4.0726,4.074,4.0773,4.0825,4.0848,4.0912,4.0922,4.0993,4.0992,4.098,4.0982,4.102,4.1017,4.1137,4.1155,4.1057,4.1058,4.1058,0,4.0412,4.0455,4.0509,4.0541,4.0567,4.0616,4.0649,4.067,4.0703,4.0756,4.0788,4.0841,4.0885,4.0968,4.0998,4.1047,4.1048,4.1087,4.1056,4.1052,4.1051,4.1049,4.1055,4.1093,4.1094,4.1095,4.1096,0,4.0494,4.0506,4.0554,4.0606,4.0646,4.0687,4.0728,4.0753,4.0781,4.0818,4.0873,4.0907,4.0974,4.1027,4.1078,4.1103,4.1105,4.1105,4.1117,4.1116,4.1108,4.1115,4.0998,4.1103,4.1102,4.1102,4.1101,4.1101,4.055,4.0589,4.0635,4.0688,4.0721,4.076,4.08,4.0827,4.0874,4.0931,4.094,4.0999,4.1041,4.1111,4.1138,4.1184,4.1174,4.1191,4.1195,4.12,4.1203,4.1099,4.1193,4.1192,4.1192,4.1192,4.1192,0,4.0635,4.0665,4.0713,4.0772,4.0814,4.0813,4.0859,4.0894,4.0946,4.0986,4.103,4.1094,4.1146,4.1179,4.1232,4.1262,4.1264,4.1275,4.1274,4.128,4.1208,4.1193,4.1273,4.1273,4.1273,4.1273,4.1273,4.1273,4.0684,4.075,4.0767,4.0851,4.088,4.0939,4.0966,4.1002,4.1034,4.1106,4.115,4.1172,4.121,4.1265,4.1313,4.1321,4.1341,4.1353,4.1361,4.1293,4.1285,4.1277,4.1263,4.1356,4.1357,4.143,4.143,4.1431]}]]